Flag for Cyprus Weather past 2 weeks in Larnaca, Cyprus

Now
88 °F

Passing clouds.


Feels Like: 96 °F
Forecast: 74 / 90 °F
Wind: 13 mph from Southwest

Location: Larnaca Airport

Current Time: Aug 27, 2014 at 12:31:01 PM

Latest Report: Aug 27, 2014 at 12:00 PM


Visibility: N/A

Pressure: 29.74 "Hg

Humidity: 62%

Dew point: 73 °F

Location of LarnacaLocation

Historic Weather in Larnaca — Graph

°F

Larnaca temperature yesterday

Maximum temperature yesterday: 91 °F (at 2:30 PM)
Minimum temperature yesterday: 72 °F (at 6:00 AM)
Average temperature yesterday: 83 °F

Past Weeks' High & Low Weather Summary

 TemperatureHumidityPressure
High99 °F (Aug 24, 2:00 PM)100% (Aug 13, 3:00 AM)29.89 "Hg (Aug 13, 3:00 AM)
Low72 °F (Aug 26, 6:00 AM)24% (Aug 24, 4:00 PM)29.53 "Hg (Aug 17, 7:00 PM)
Average83 °F73%29.72 "Hg
* Reported Aug 12 11:00 AM — Aug 27 11:30 AM, Larnaca, Weather by CustomWeather, © 2014

Note: Actual official high and low records may vary slightly from our data, if they occured in-between our weather recording intervals... More about our weather records

Advertising

Larnaca weather history for previous 24 hours

 ConditionsComfort  
Time TempWeatherWind HumidityBarometerVisibility
11:30 AM
Aug 27
88 °FSunny.13 mph62%29.74 "Hg10 mi
11:00 AM88 °FPassing clouds.13 mph62%29.74 "HgN/A
10:30 AM86 °FPassing clouds.13 mph66%29.74 "HgN/A
10:00 AM86 °FPassing clouds.12 mph66%29.74 "HgN/A
9:30 AM84 °FPassing clouds.12 mph70%29.74 "HgN/A
9:00 AM84 °FPassing clouds.10 mph70%29.77 "HgN/A
8:30 AM82 °FPassing clouds.9 mph74%29.74 "Hg5 mi
8:00 AM81 °FPassing clouds.3 mph79%29.74 "Hg5 mi
7:30 AM79 °FPassing clouds.1 mph79%29.74 "Hg5 mi
7:00 AM75 °FPassing clouds.No wind83%29.74 "Hg5 mi
6:30 AM73 °FPassing clouds.3 mph83%29.74 "Hg5 mi
6:00 AM73 °FClear.3 mph89%29.74 "Hg5 mi
5:30 AM73 °FClear.3 mph89%29.74 "Hg6 mi
5:00 AM73 °FClear.3 mph83%29.74 "Hg6 mi
4:30 AM77 °FPassing clouds.6 mph83%29.74 "Hg5 mi
4:00 AM75 °FPassing clouds.2 mph83%29.74 "Hg5 mi
3:30 AM75 °FPassing clouds.3 mph83%29.74 "Hg5 mi
3:00 AM77 °FClear.3 mph89%29.74 "Hg5 mi
2:30 AM77 °FClear.6 mph89%29.74 "Hg5 mi
2:00 AM77 °FClear.5 mph89%29.74 "Hg5 mi
1:30 AM77 °FClear.7 mph89%29.74 "Hg5 mi
1:00 AM79 °FClear.7 mph89%29.74 "Hg5 mi
12:30 AM79 °FClear.5 mph89%29.74 "Hg5 mi
12:00 AM79 °FClear.6 mph89%29.74 "Hg10 mi
11:30 PM
Aug 26
79 °FClear.6 mph89%29.74 "Hg10 mi
11:00 PM81 °FClear.8 mph84%29.74 "Hg10 mi
10:30 PM81 °FClear.9 mph84%29.74 "Hg10 mi
10:00 PM81 °FClear.8 mph84%29.74 "Hg10 mi
9:30 PM82 °FClear.9 mph79%29.74 "Hg10 mi
9:00 PM82 °FClear.12 mph79%29.71 "Hg10 mi
8:30 PM82 °FClear.13 mph84%29.71 "Hg10 mi
8:00 PM82 °FSunny.15 mph84%29.71 "Hg10 mi
7:30 PM84 °FSunny.16 mph79%29.71 "Hg10 mi
7:00 PM84 °FSunny.17 mph79%29.71 "Hg10 mi
6:30 PM86 °FSunny.18 mph75%29.68 "Hg10 mi
6:00 PM86 °FSunny.20 mph70%29.68 "Hg10 mi
5:30 PM88 °FPassing clouds.21 mph66%29.71 "HgN/A
5:00 PM90 °FPassing clouds.18 mph63%29.71 "HgN/A
4:30 PM90 °FPassing clouds.18 mph63%29.71 "HgN/A
4:00 PM91 °FPassing clouds.17 mph56%29.71 "HgN/A
3:30 PM91 °FPassing clouds.17 mph59%29.71 "HgN/A
3:00 PM91 °FPassing clouds.17 mph59%29.71 "HgN/A
2:30 PM91 °FPassing clouds.16 mph59%29.71 "HgN/A
2:00 PM90 °FPassing clouds.15 mph63%29.74 "HgN/A
1:30 PM90 °FPassing clouds.15 mph63%29.74 "HgN/A
1:00 PM90 °FPassing clouds.14 mph63%29.74 "HgN/A
12:30 PM90 °FSunny.13 mph63%29.74 "Hg10 mi
12:00 PM88 °FSunny.12 mph66%29.74 "Hg10 mi
Weather by CustomWeather, © 2014

See weather overviewHow to use our weather pages